Location: Baix
(44.7118°N, 4.7648°E)
Time: 15:35:09
(UTC+00:00)

Explorer 11/Cluster Stage 4 - Pass Details

Date: 02 December 2020
Orbit: 467 x 1258 km, 28.8° (Epoch: 14 January)

Event Time Altitude Azimuth Distance (km) Brightness Sun altitude
Rises 20:36:38 0° 236° (SW) 4,076 10.6 -47.9°
Enters shadow 20:39:12 - 227° (SW) 3,344 10.0 -48.4°
Reaches altitude 10° 20:40:29 10° 221° (SW) 3,009 - -48.6°
Maximum altitude 20:45:31 20° 178° (S) 2,201 - -49.4°
Drops below altitude 10° 20:50:00 10° 134° (SE) 2,638 - -50.2°
Sets 20:53:06 0° 117° (ESE) 3,428 - -50.7°
